Regional Weather Roundup
Issued by NWS Sterling, VA

Home | Current Version | Previous Version | Text Only | Print | Product List | Glossary Off
Versions: 1 2 3 4 5 6 7 8 9 10 11 12 13 14 15 16 17 18 19 20 21 22 23 24 25 26 27 28 29 30 31 32 33 34 35 36 37 38 39 40 41 42 43 44 45 46 47 48 49 50

000
ASUS41 KLWX 011310
RWRLWX

REGIONAL WEATHER ROUNDUP
NATIONAL WEATHER SERVICE BALTIMORE MD/WASHINGTON DC
800 AM EST SUN FEB 01 2015

Note: "FAIR" indicates few or no clouds below 12,000 feet
with no significant weather and/or obstructions to visibility.
 TC=TEMPERATURE CELSIUS

 * =Non NWS site. Station does not report precipitation (e.g. rain,
    snow, etc.), thunder, or fog.

DCZ001-MDZ009-015-VAZ040>042-051-053>054-011400-
WASHINGTON METRO

CITY           SKY/WX    TMP DP  RH WIND       PRES   REMARKS
WASHINGTON NAT CLOUDY    32  18  56 S3        30.30R
DULLES         CLOUDY    28  17  63 S6        30.28R
ANDREWS AFB    CLOUDY    28  15  57 W6        30.27S
FT BELVOIR     CLOUDY    27  22  79 SE1       30.30S
QUANTICO       CLOUDY    30  17  58 CALM      30.31F
COLLEGE PARK*  CLOUDY    28  23  80 CALM      30.29R
LEESBURG*      CLOUDY    30  21  69 S6        30.27S
MANASSAS*      CLOUDY    27  23  86 S3        30.29S
GAITHERSBURG*  CLOUDY    27  16  63 CALM      30.29S

$$

MDZ006>007-011-014-011400-
BALTIMORE METRO

CITY           SKY/WX    TMP DP  RH WIND       PRES   REMARKS
BWI AIRPORT    CLOUDY    25  17  72 SW3       30.28R
MD SCIENCE CTR   N/A     28  14  55 MISG      30.29R
MARTIN STATE   CLOUDY    27  23  86 CALM      30.30S
ANNAPOLIS      CLOUDY    27  17  66 CALM      30.28S
FORT MEADE*    CLOUDY    23  19  86 CALM      30.31R

$$

MDZ012-015-019>023-011400-
MARYLAND EASTERN SHORE

CITY           SKY/WX    TMP DP  RH WIND       PRES   REMARKS
OCEAN CITY     PTCLDY    25  18  74 CALM      30.30R
SALISBURY      MOCLDY    24  17  74 S5        30.31R
BAY BRIDGE AP*   N/A     30  27  86 S3        30.29R
CAMBRIDGE*     MOCLDY    30  21  69 CALM      30.30R
EASTON*        CLOUDY    25  19  80 CALM      30.31

$$

MDZ017>025-011400-
SOUTHERN MARYLAND

CITY           SKY/WX    TMP DP  RH WIND       PRES   REMARKS
PATUXENT RIVER CLOUDY    27  20  75 S3        30.30R
ST INIGOES     NOT AVBL
LEONARDTOWN*   MOCLDY    30  19  64 SE5       30.30F

$$

MDZ003>005-011400-
NORTH CENTRAL MARYLAND

CITY           SKY/WX    TMP DP  RH WIND       PRES   REMARKS
FREDERICK*     CLOUDY    28  16  59 W3        30.28S
HAGERSTOWN APT CLOUDY    28  13  53 S3        30.22S
WESTMINSTER*   CLOUDY    30  12  47 SW5       30.23R

$$

MDZ501>502-011400-
WESTERN MARYLAND

CITY           SKY/WX    TMP DP  RH WIND       PRES   REMARKS
OAKLAND*       CLOUDY    23 N/A N/A S10       30.09F HAZE    WCI  12
CUMBERLAND*    MOCLDY    27  21  80 N5        30.25F

$$

VAZ025>031-011400-
SHENANDOAH VALLEY

CITY           SKY/WX    TMP DP  RH WIND       PRES   REMARKS
WINCHESTER*    CLOUDY    32  14  47 SW3       30.23R
FRONT ROYAL*   CLOUDY    30  19  64 CALM      30.22S
LURAY*         CLOUDY    30  25  80 CALM      30.22S
NEW MARKET*    CLOUDY    28  22  78 CALM      30.22R
STAUNTON*      CLOUDY    31  23  73 CALM      30.23S
WAYNESBORO*    CLOUDY    33  10  38 CALM      30.20S

$$

WVZ021-048>050-054>055-011400-
EASTERN WEST VIRGINIA PANHANDLE

CITY           SKY/WX    TMP DP  RH WIND       PRES   REMARKS
MARTINSBURG    CLOUDY    29  15  56 SW3       30.23S
PETERSBURG*    CLOUDY    29  20  68 CALM      30.21S

$$

VAZ036>039-050-011400-
CENTRAL FOOTHILLS

CITY           SKY/WX    TMP DP  RH WIND       PRES   REMARKS
CHARLOTTESVILL CLOUDY    30  14  51 CALM      30.26R
CULPEPER*      CLOUDY    28  21  74 CALM      30.27F
ORANGE*        CLOUDY    32  16  51 CALM      30.29S
GORDONSVILLE*  CLOUDY    30  12  47 CALM      30.26S
WARRENTON*     CLOUDY    29  26  86 CALM      30.26F

$$

VAZ055>057-011400-
NORTH AND CENTRAL PIEDMONT

CITY           SKY/WX    TMP DP  RH WIND       PRES   REMARKS
FREDERICKSBRG* CLOUDY    28  23  81 CALM      30.29F
STAFFORD*      CLOUDY    28  18  67 CALM      30.33F

$$

NCZ024-NYZ072-PAZ021-071-VAZ022-071-011400-
OTHER REGIONAL OBSERVATIONS

CITY           SKY/WX    TMP DP  RH WIND       PRES   REMARKS
NEW YORK CITY  CLOUDY    26  12  55 VRB3      30.23R
PHILADELPHIA   CLOUDY    27  15  61 S5        30.27R
PITTSBURGH     LGT SNOW  27  25  92 S3        30.16F VSB 1
ROANOKE        CLOUDY    34  18  52 CALM      30.25R
RICHMOND       CLOUDY    28  21  75 SE3       30.30R
RALEIGH        MOCLDY    37  20  50 S3        30.27F

$$

ANZ530>537-011400-
MARINE OBSERVATIONS

STATION/POSITION TIME  TEMP    WIND        PRES
                       AIR SEA DIR/SP/G
                 (UTC) (F)     (DEG/KT/KT) (MB)
THOMAS PT LIGHT  1300   30 34  250/  6/  6 1026.7R
BALT KEY BRIDGE  1300   27     240/  4/  4 1025.4S
COVE POINT       1300   31     180/  5/  6 1025.7F
LEWISETTA        1300   29 34     CALM     1026.0S
SOLOMONS ISLAND  1300      36                N/A
PINEY POINT      1300          180/  4/  5   N/A

$$




USA.gov is the U.S. government's official web portal to all federal, state and local government web resources and services.